Winchester, TN

12:06 PM CDT on April 27, 2017 (GMT -0500)
Winchester Municipal

Weather History for KBGF - February, 2013

Change the Weather History Date:

Friday, February 22, 2013

  Actual Average (KTHA) Record (KTHA)
Temperature  
Mean Temperature 47 °F -  
Max Temperature 50 °F 55 °F 66 °F (2017)
Min Temperature 44 °F 35 °F 26 °F (2014)
Degree Days  
Heating Degree Days 18    
Moisture  
Dew Point 45 °F    
Average Humidity 91    
Maximum Humidity 100    
Minimum Humidity 82    
Precipitation  
Precipitation 0.00 in - - ()
Sea Level Pressure  
Sea Level Pressure 30.01 in    
Wind  
Wind Speed 13 mph (SSE)    
Max Wind Speed 23 mph    
Max Gust Speed 28 mph    
Visibility 10 miles    
Events      
Averages and records for this station are not official NWS values.
T = Trace of Precipitation, MM = Missing Value Source: NWS Daily Summary

Daily Weather History Graph

Daily Weather History Graph

Search for Another Location

Airport or City:

Trip Planner

Search our weather history database for the weather conditions in past years. The results will help you decide how hot, cold, wet, or windy it might be!

Date:

Astronomy

Feb. 22, 2013 Rise Set
Actual Time 7:22 AM EST 6:33 PM EST
Civil Twilight 6:56 AM EST 6:59 PM EST
Nautical Twilight 6:27 AM EST 7:28 PM EST
Astronomical Twilight 5:57 AM EST 7:58 PM EST
Moon 3:48 PM EST (2/22) 5:02 AM EST (2/22)
Length of Visible Light 12h 02m
Length of Day
11h 11m
Waxing Gibbous, 90% of the Moon is Illuminated
Feb 22
Waxing Gibbous
Feb 25
Full
Mar 4
Last Quarter
Mar 11
New
Mar 19
First Quarter

Hourly Weather History & Observations

Time (EST) Temp. Windchill Dew Point Humidity Pressure Visibility Wind Dir Wind Speed Gust Speed Precip Events Conditions
12:15 AM 44.6 °F 36.1 °F 41.0 °F 87% 29.91 in 10.0 mi ESE 21.9 mph - N/A   Overcast
12:35 AM 46.4 °F 38.3 °F 42.8 °F 87% 29.92 in 10.0 mi SE 23.0 mph - N/A   Overcast
12:55 AM 46.4 °F 39.5 °F 42.8 °F 87% 29.93 in 10.0 mi ESE 17.3 mph - N/A   Overcast
1:35 AM 46.4 °F 40.1 °F 42.8 °F 87% 29.94 in 10.0 mi SE 15.0 mph - N/A   Overcast
1:55 AM 46.4 °F 39.5 °F 44.6 °F 93% 29.94 in 9.0 mi SE 17.3 mph - N/A   Overcast
2:15 AM 46.4 °F 40.4 °F 44.6 °F 93% 29.94 in 9.0 mi SE 13.8 mph - N/A   Overcast
2:35 AM 46.4 °F 39.8 °F 44.6 °F 93% 29.94 in 10.0 mi SE 16.1 mph - N/A   Overcast
2:55 AM 46.4 °F 39.2 °F 44.6 °F 93% 29.93 in 10.0 mi SE 18.4 mph - N/A   Overcast
3:15 AM 46.4 °F 39.5 °F 44.6 °F 93% 29.94 in 10.0 mi SE 17.3 mph - N/A   Overcast
3:35 AM 46.4 °F 39.5 °F 44.6 °F 93% 29.93 in 10.0 mi SE 17.3 mph - N/A   Overcast
3:55 AM 46.4 °F 38.3 °F 44.6 °F 93% 29.92 in 10.0 mi SE 23.0 mph 27.6 mph N/A   Overcast
4:15 AM 46.4 °F 40.1 °F 44.6 °F 93% 29.93 in 10.0 mi SE 15.0 mph - N/A   Overcast
4:35 AM 46.4 °F 39.8 °F 44.6 °F 93% 29.94 in 10.0 mi SE 16.1 mph - N/A   Overcast
4:55 AM 46.4 °F 39.8 °F 44.6 °F 93% 29.93 in 10.0 mi SSE 16.1 mph - N/A   Overcast
5:15 AM 46.4 °F 39.0 °F 44.6 °F 93% 29.95 in 10.0 mi SE 19.6 mph - N/A   Overcast
5:35 AM 46.4 °F 38.7 °F 42.8 °F 87% 29.95 in 10.0 mi SSE 20.7 mph - N/A   Overcast
5:55 AM 46.4 °F 39.5 °F 44.6 °F 93% 29.97 in 10.0 mi SSE 17.3 mph - N/A   Overcast
6:15 AM 46.4 °F 39.5 °F 44.6 °F 93% 29.98 in 10.0 mi SSE 17.3 mph - N/A   Overcast
6:35 AM 46.4 °F 41.9 °F 44.6 °F 93% 29.99 in 10.0 mi SSE 9.2 mph - N/A   Overcast
6:55 AM 48.2 °F - 44.6 °F 87% 30.00 in 10.0 mi South 6.9 mph - N/A   Overcast
7:15 AM 46.4 °F 44.3 °F 44.6 °F 93% 30.00 in 10.0 mi South 4.6 mph - N/A   Overcast
7:35 AM 46.4 °F 41.5 °F 44.6 °F 93% 30.02 in 10.0 mi South 10.4 mph - N/A   Overcast
7:55 AM 46.4 °F 42.9 °F 44.6 °F 93% 30.03 in 10.0 mi SSW 6.9 mph - N/A   Overcast
8:35 AM 48.2 °F - 44.6 °F 87% 30.04 in 10.0 mi SSE 13.8 mph - N/A   Overcast
8:55 AM 48.2 °F - 44.6 °F 87% 30.04 in 10.0 mi SSE 10.4 mph - N/A   Overcast
9:15 AM 48.2 °F - 44.6 °F 87% 30.04 in 10.0 mi SE 9.2 mph - N/A   Overcast
9:35 AM 48.2 °F - 44.6 °F 87% 30.04 in 10.0 mi SSE 10.4 mph - N/A   Overcast
9:55 AM 48.2 °F - 44.6 °F 87% 30.04 in 10.0 mi SSE 12.7 mph - N/A   Overcast
10:15 AM 48.2 °F - 44.6 °F 87% 30.06 in 10.0 mi SSE 10.4 mph - N/A   Overcast
10:35 AM 48.2 °F - 44.6 °F 87% 30.06 in 10.0 mi South 13.8 mph - N/A   Overcast
11:15 AM 48.2 °F - 44.6 °F 87% 30.06 in 10.0 mi SSE 12.7 mph - N/A   Overcast
11:35 AM 48.2 °F - 44.6 °F 87% 30.06 in 10.0 mi South 12.7 mph - N/A   Overcast
11:55 AM 48.2 °F - 44.6 °F 87% 30.06 in 10.0 mi SSE 9.2 mph - N/A   Overcast
12:15 PM 50.0 °F - 44.6 °F 82% 30.08 in 10.0 mi South 10.4 mph - N/A   Overcast
12:35 PM 48.2 °F - 44.6 °F 87% 30.08 in 10.0 mi South 8.1 mph - N/A   Overcast
12:55 PM 48.2 °F - 44.6 °F 87% 30.09 in 10.0 mi SSW 5.8 mph - N/A   Overcast
1:15 PM 48.2 °F - 44.6 °F 87% 30.07 in 10.0 mi SSE 5.8 mph - N/A   Overcast
1:35 PM 50.0 °F - 44.6 °F 82% 30.06 in 10.0 mi SSE 5.8 mph - N/A   Overcast
1:55 PM 48.2 °F - 44.6 °F 87% 30.06 in 10.0 mi South 8.1 mph - N/A   Overcast
2:15 PM 48.2 °F - 44.6 °F 87% 30.04 in 10.0 mi SE 8.1 mph - N/A   Overcast
2:35 PM 48.2 °F - 44.6 °F 87% 30.03 in 10.0 mi SSE 8.1 mph - N/A   Overcast
2:55 PM 48.2 °F - 44.6 °F 87% 30.02 in 10.0 mi SE 8.1 mph - N/A   Overcast
3:15 PM 48.2 °F - 46.4 °F 93% 30.01 in 10.0 mi SE 10.4 mph - N/A   Overcast
3:35 PM 48.2 °F - 46.4 °F 93% 30.01 in 10.0 mi SSE 11.5 mph - N/A   Overcast
3:55 PM 48.2 °F - 44.6 °F 87% 30.01 in 10.0 mi SE 9.2 mph - N/A   Overcast
4:15 PM 50.0 °F - 46.4 °F 87% 30.01 in 10.0 mi SSE 6.9 mph - N/A   Overcast
4:35 PM 48.2 °F - 44.6 °F 87% 30.01 in 10.0 mi SSE 6.9 mph - N/A   Overcast
4:55 PM 48.2 °F - 44.6 °F 87% 30.00 in 10.0 mi South 6.9 mph - N/A   Overcast
5:15 PM 48.2 °F - 44.6 °F 87% 29.99 in 10.0 mi South 5.8 mph - N/A   Overcast
5:35 PM 48.2 °F - 44.6 °F 87% 30.01 in 10.0 mi SSE 6.9 mph - N/A   Overcast
5:55 PM 48.2 °F - 44.6 °F 87% 30.03 in 10.0 mi South 4.6 mph - N/A   Overcast
6:15 PM 48.2 °F - 44.6 °F 87% 30.03 in 10.0 mi South 3.5 mph - N/A   Overcast
6:35 PM 48.2 °F - 44.6 °F 87% 30.02 in 10.0 mi SSE 5.8 mph - N/A   Overcast
6:55 PM 48.2 °F - 44.6 °F 87% 30.03 in 10.0 mi South 4.6 mph - N/A   Overcast
7:15 PM 46.4 °F 43.5 °F 44.6 °F 93% 30.01 in 10.0 mi SE 5.8 mph - N/A   Overcast
7:35 PM 46.4 °F 43.5 °F 44.6 °F 93% 30.01 in 10.0 mi SE 5.8 mph - N/A   Overcast
7:55 PM 46.4 °F 42.9 °F 44.6 °F 93% 30.02 in 10.0 mi SSE 6.9 mph - N/A   Overcast
8:15 PM 46.4 °F 43.5 °F 44.6 °F 93% 30.01 in 10.0 mi SE 5.8 mph - N/A   Overcast
8:35 PM 46.4 °F 44.3 °F 44.6 °F 93% 30.04 in 10.0 mi South 4.6 mph - N/A   Overcast
8:55 PM 46.4 °F 44.3 °F 44.6 °F 93% 30.04 in 10.0 mi SSE 4.6 mph - N/A   Overcast
9:15 PM 46.4 °F 44.3 °F 44.6 °F 93% 30.03 in 10.0 mi SSE 4.6 mph - N/A   Overcast
9:35 PM 46.4 °F 43.5 °F 44.6 °F 93% 30.03 in 10.0 mi SSE 5.8 mph - N/A   Mostly Cloudy
9:55 PM 44.6 °F 42.2 °F 44.6 °F 100% 30.03 in 10.0 mi SE 4.6 mph - N/A   Partly Cloudy
10:15 PM 44.6 °F 40.7 °F 44.6 °F 100% 30.03 in 10.0 mi SE 6.9 mph - N/A   Clear
10:35 PM 44.6 °F 41.4 °F 44.6 °F 100% 30.04 in 10.0 mi SE 5.8 mph - N/A   Mostly Cloudy
10:55 PM 44.6 °F 40.2 °F 44.6 °F 100% 30.01 in 10.0 mi ESE 8.1 mph - N/A   Scattered Clouds
11:15 PM 44.6 °F 42.2 °F 44.6 °F 100% 30.01 in 8.0 mi ESE 4.6 mph - N/A   Mostly Cloudy
11:35 PM 44.6 °F 42.2 °F 44.6 °F 100% 30.05 in 8.0 mi South 4.6 mph - N/A   Mostly Cloudy
11:55 PM 44.6 °F 42.2 °F 44.6 °F 100% 30.02 in 10.0 mi SE 4.6 mph - N/A   Overcast